ITAMSAT (IO-26) (22826 NORAD) Tracking and Keplerian Element Data

This shows tracking and keplerian element data for the satellite.

Feedback or suggestion? Click here.




ElementValue
Catalog22826
NameITAMSAT (IO-26)
Epoch Orbit61970
Epoch Day286.7086915
Epoch Year2024
RAAN340.5049
Inclination98.7694
Eccentricity0.0010035
Argument of Perigee81.7956
Mean Anonmoly278.4364
Mean Motion14.3100934
Decay Rate7.95E-06
L11 22826U 93061D 24286.70869150 .00000795 00000+0 31915-3 0 9999
L22 22826 98.7694 340.5049 0010035 81.7956 278.4364 14.31009340619707



Live tracking and technical data element details for ITAMSAT (IO-26) (NORAD 22826). ITAMSAT (IO-26) can be tracked NOW for your location showing map with azimuth and elevation plus other details from your city location.







IsCatalogInMostPopularTable: catalog: 22826, numindb: 497
Update: records affected: 1



GetName: 22826 ITAMSAT (IO-26)

Hit Count: updated at: Thu, 23 Jan 2025 16:12:31 GMT